Zurück zum Katalog

STARLINK-34451

AktivKommunikationVLEO
NORAD 64433·PAYLOAD·🇺🇸 United States

Gestartet Jun 17, 2025 von Vandenberg Space Force Base

Loading…

Nächste Überflüge (nächste 24 Stunden)

TLE

AktuellSource: CelesTrak SupGP

Epoche: Sep 14, 2026, 22:56 UTC

1 64433C 25129X   26257.95604167  .00052111  00000+0  18135-2 0  2575
2 64433  69.9994 315.7036 0003678 268.1213 184.8691 15.29537751    13

Verfolge STARLINK-34451 in Echtzeit mit AllMySat

Download on the App Store